User: anonymous   Login
Location: Sternwarte_Laufen
(47.9344°N, 12.9346°E)
Time: 23:57:15
(UTC+02:00)
Language:

ISS - Orbit

View from above orbital plane
View from above orbital plane
View from above satellite
View from above satellite

Ground track
Ground track

The orbit data is extracted from the following two-line orbital elements,

1 25544U 98067A   18169.55025990  .00016717  00000-0  10270-3 0  9030
2 25544  51.6400  11.9209 0002855 208.6358 151.4638 15.54161966 38724
Epoch (UTC): 18 June 2018 13:12:22
Eccentricity: 0.0002855
inclination: 51.6400°
perigee height: 402 km
apogee height: 406 km
right ascension of ascending node: 11.9209°
argument of perigee: 208.6358°
revolutions per day: 15.54161966
mean anomaly at epoch: 151.4638°
orbit number at epoch: 3872

The dashed part of the orbit path shows where the satellite is in the earth's shadow,  

DLR